EW5995 Groton CT US current weather conditions

sailwx.info

Wind from 234 at 7 knots gusting 11

Air temperature 23.3° C
Dewpoint 20.9° C

Last reported at 2020-Jul-12 12:01 UTC.
Time now 2020-Jul-12 12:28 UTC

Location: N 41°21' W 072°05'.
View on Google Maps.

See reports from other nearby stations

  
Tides and Currents Weather Stations Pressure Air Temp Water Temp Dewpoint Dewpoint Depression Visibility Wind Speed Wind Dir Waves Ship Positions
date/time (UTC)wind fromknots sea level pressurealtimeterstation pressurevisibilityair tempwater tempwave heightnotes
2020-Jul-12 12:06 225 7 gusting 13 23.3
2020-Jul-12 12:01 234 7 gusting 11 23.3
2020-Jul-12 11:56 243 7 gusting 12 22.8
2020-Jul-12 11:51 236 7 gusting 14 22.8
2020-Jul-12 11:46 220 7 gusting 14 22.8
2020-Jul-12 11:41 236 6 gusting 14 22.8
2020-Jul-12 11:36 239 6 gusting 14 22.8
2020-Jul-12 11:31 221 6 gusting 11 22.8
2020-Jul-12 11:26 225 6 gusting 10 22.8
2020-Jul-12 11:21 247 5 gusting 10 22.8
2020-Jul-12 11:16 226 5 gusting 9 22.8
2020-Jul-12 11:11 268 5 gusting 8 22.8
2020-Jul-12 11:06 262 5 gusting 8 22.8
2020-Jul-12 11:01 258 5 gusting 8 22.8
2020-Jul-12 10:56 001 4 gusting 13 22.8
2020-Jul-12 10:51 256 5 gusting 13 22.8
2020-Jul-12 10:46 267 5 gusting 13 22.8
2020-Jul-12 10:41 247 6 gusting 8 22.8
2020-Jul-12 10:36 233 6 gusting 8 22.8
2020-Jul-12 10:31 245 5 gusting 8 22.8
2020-Jul-12 10:26 261 5 gusting 7 22.2
2020-Jul-12 10:21 214 4 gusting 7 22.2
2020-Jul-12 10:16 225 3 gusting 6 22.2
2020-Jul-12 10:11 288 3 gusting 6 22.2
2020-Jul-12 10:06 238 3 gusting 7 22.2
2020-Jul-12 10:01 257 4 gusting 7 22.2
2020-Jul-12 09:56 230 4 gusting 7 22.2
2020-Jul-12 09:51 263 4 gusting 9 22.2
2020-Jul-12 09:46 223 5 gusting 9 22.8
2020-Jul-12 09:41 226 5 gusting 8 22.8
2020-Jul-12 09:36 217 5 gusting 9 22.8
2020-Jul-12 09:31 216 5 gusting 9 22.8
2020-Jul-12 09:26 220 5 gusting 9 22.8
2020-Jul-12 09:21 212 5 gusting 9 22.8
2020-Jul-12 09:16 255 5 gusting 9 22.8
2020-Jul-12 09:11 225 5 gusting 10 22.8
2020-Jul-12 09:06 218 6 gusting 10 22.8
2020-Jul-12 09:01 220 5 gusting 8 22.8
2020-Jul-12 08:56 232 5 gusting 9 22.8
2020-Jul-12 08:51 229 5 gusting 10 22.8
2020-Jul-12 08:46 216 5 gusting 10 22.8
2020-Jul-12 08:41 199 5 gusting 9 22.8
2020-Jul-12 08:36 230 6 gusting 9 22.8
2020-Jul-12 08:31 239 6 gusting 9 22.8
2020-Jul-12 08:26 236 6 gusting 9 22.8
2020-Jul-12 08:21 234 5 gusting 9 22.8
2020-Jul-12 08:16 255 5 gusting 8 22.8
2020-Jul-12 08:11 231 5 gusting 8 22.8
2020-Jul-12 08:06 204 4 gusting 7 22.8
2020-Jul-12 08:01 231 4 gusting 7 22.8
2020-Jul-12 07:56 216 4 gusting 7 22.8
2020-Jul-12 07:51 206 4 gusting 7 22.8
2020-Jul-12 07:46 228 3 gusting 7 22.8
2020-Jul-12 07:41 286 3 gusting 7 22.8
2020-Jul-12 07:36 224 4 gusting 6 22.8
2020-Jul-12 07:31 208 3 gusting 6 22.8
2020-Jul-12 07:26 228 2 gusting 5 22.8
2020-Jul-12 07:21 209 1 gusting 4 22.8
2020-Jul-12 07:16 206 1 gusting 4 22.8
2020-Jul-12 07:11 228 2 gusting 4 22.8
2020-Jul-12 07:06 228 2 gusting 4 22.8
2020-Jul-12 07:01 228 2 gusting 4 22.8
2020-Jul-12 06:56 227 2 gusting 4 22.8
2020-Jul-12 06:51 228 1 gusting 4 22.8
2020-Jul-12 06:46 227 1 gusting 4 22.8
2020-Jul-12 06:41 228 1 gusting 3 22.8
2020-Jul-12 06:36 227 1 gusting 5 22.8
2020-Jul-12 06:31 215 2 gusting 6 22.8
2020-Jul-12 06:26 189 3 gusting 6 22.8
2020-Jul-12 06:21 199 3 gusting 6 22.8
2020-Jul-12 06:16 186 3 gusting 6 22.8
2020-Jul-12 06:11 224 3 gusting 8 22.8
2020-Jul-12 06:06 196 2 gusting 8 22.8
2020-Jul-12 06:01 202 2 gusting 4 22.8
2020-Jul-12 05:56 206 3 gusting 6 22.8
2020-Jul-12 05:51 212 3 gusting 8 22.8
2020-Jul-12 05:46 206 3 gusting 8 22.8
2020-Jul-12 05:41 203 2 gusting 6 22.8
2020-Jul-12 05:36 218 2 gusting 6 22.8
2020-Jul-12 05:31 219 2 gusting 6 22.8
2020-Jul-12 05:26 197 2 gusting 5 22.8
2020-Jul-12 05:21 193 2 gusting 5 22.8
2020-Jul-12 05:16 195 3 gusting 5 22.8
2020-Jul-12 05:11 188 3 gusting 5 22.8
2020-Jul-12 05:06 214 3 gusting 5 22.8
2020-Jul-12 05:01 215 3 gusting 6 22.8
2020-Jul-12 04:55 201 4 gusting 6 22.8
2020-Jul-12 04:51 213 4 gusting 6 22.8
2020-Jul-12 04:45 197 5 gusting 7 22.8
2020-Jul-12 04:40 212 6 gusting 9 22.8
2020-Jul-12 04:35 208 6 gusting 9 22.8
2020-Jul-12 04:30 189 6 gusting 8 22.8
2020-Jul-12 04:25 219 6 gusting 10 22.8
2020-Jul-12 04:20 208 6 gusting 10 22.8
2020-Jul-12 04:15 184 6 gusting 8 22.8
2020-Jul-12 04:10 216 6 gusting 8 22.8
2020-Jul-12 04:05 204 6 gusting 8 22.8
2020-Jul-12 04:00 191 5 gusting 8 22.8
2020-Jul-12 03:55 213 5 gusting 8 22.8
2020-Jul-12 03:50 221 6 gusting 9 22.8
2020-Jul-12 03:45 202 6 gusting 9 22.8
2020-Jul-12 03:40 200 6 gusting 10 22.8
2020-Jul-12 03:35 204 6 gusting 10 22.8
2020-Jul-12 03:30 228 6 gusting 8 22.8
2020-Jul-12 03:25 200 5 gusting 8 22.8
2020-Jul-12 03:20 200 5 gusting 7 22.8
2020-Jul-12 03:15 199 4 gusting 7 22.8
2020-Jul-12 03:10 203 5 gusting 8 22.8
2020-Jul-12 03:05 199 6 gusting 8 23.3
2020-Jul-12 03:00 218 6 gusting 8 22.8
2020-Jul-12 02:55 228 6 gusting 9 22.8
2020-Jul-12 02:50 207 6 gusting 9 23.3
2020-Jul-12 02:45 216 6 gusting 8 23.3
2020-Jul-12 02:40 204 6 gusting 9 23.3
2020-Jul-12 02:35 202 6 gusting 9 23.3
2020-Jul-12 02:30 197 6 gusting 8 23.3
2020-Jul-12 02:25 216 6 gusting 9 23.3
2020-Jul-12 02:20 224 6 gusting 10 23.3
2020-Jul-12 02:15 186 6 gusting 10 23.3
2020-Jul-12 02:10 195 6 gusting 11 23.3
2020-Jul-12 02:05 169 7 gusting 11 23.3
2020-Jul-12 02:00 200 7 gusting 13 23.3
2020-Jul-12 01:55 210 8 gusting 14 23.3
2020-Jul-12 01:50 191 7 gusting 14 23.3
2020-Jul-12 01:45 193 6 gusting 11 22.8
2020-Jul-12 01:40 185 5 gusting 9 22.8
2020-Jul-12 01:35 170 5 gusting 9 22.8
2020-Jul-12 01:30 200 5 gusting 9 22.8
2020-Jul-12 01:25 196 4 gusting 8 22.8
2020-Jul-12 01:20 140 4 gusting 8 22.8
2020-Jul-12 01:15 138 4 gusting 8 22.8
2020-Jul-12 01:10 189 4 gusting 7 22.8
2020-Jul-12 01:05 198 5 gusting 8 22.8
2020-Jul-12 01:00 197 5 gusting 8 22.8
2020-Jul-12 00:55 172 5 gusting 8 23.3
2020-Jul-12 00:50 191 4 gusting 9 23.3
2020-Jul-12 00:45 194 3 gusting 9 23.3
2020-Jul-12 00:40 137 3 gusting 6 23.3
2020-Jul-12 00:35 144 3 gusting 6 23.3
2020-Jul-12 00:30 142 2 gusting 6 23.3
2020-Jul-12 00:25 184 3 gusting 6 23.3
2020-Jul-12 00:20 201 3 gusting 6 23.3
2020-Jul-12 00:15 183 3 gusting 6 23.3
2020-Jul-12 00:10 123 3 gusting 7 23.3
2020-Jul-12 00:05 140 3 gusting 7 23.3
2020-Jul-12 00:00 153 4 gusting 8 23.3
2020-Jul-11 23:55 169 5 gusting 9 23.3
2020-Jul-11 23:50 176 5 gusting 9 23.3
2020-Jul-11 23:45 193 5 gusting 8 23.3
2020-Jul-11 23:40 185 4 gusting 8 23.3
2020-Jul-11 23:35 153 3 gusting 7 23.3
2020-Jul-11 23:30 166 3 gusting 6 23.3
2020-Jul-11 23:25 174 4 gusting 6 22.8
2020-Jul-11 23:20 186 4 gusting 7 22.8
2020-Jul-11 23:15 196 4 gusting 8 22.8
2020-Jul-11 23:10 189 4 gusting 8 22.8
2020-Jul-11 23:05 181 4 gusting 7 22.8
2020-Jul-11 23:00 185 4 gusting 8 22.8
2020-Jul-11 22:55 195 5 gusting 8 22.8
2020-Jul-11 22:50 234 5 gusting 11 22.8
2020-Jul-11 22:45 191 5 gusting 11 22.8
2020-Jul-11 22:40 208 5 gusting 9 22.2
2020-Jul-11 22:35 193 5 gusting 10 22.2
2020-Jul-11 22:30 156 5 gusting 10 22.2
2020-Jul-11 22:25 183 5 gusting 9 22.8
2020-Jul-11 22:20 169 5 gusting 9 22.8
2020-Jul-11 22:15 193 5 gusting 8 22.8
2020-Jul-11 22:10 213 5 gusting 10 22.8
2020-Jul-11 22:05 158 5 gusting 10 22.8
2020-Jul-11 22:00 190 4 gusting 8 22.2
2020-Jul-11 21:55 188 4 gusting 7 22.2
2020-Jul-11 21:50 200 4 gusting 9 22.2
2020-Jul-11 21:45 207 4 gusting 9 21.7
2020-Jul-11 21:40 190 5 gusting 9 22.2
2020-Jul-11 21:35 200 4 gusting 7 22.2
2020-Jul-11 21:30 092 3 gusting 7 22.2
2020-Jul-11 21:25 205 4 gusting 7 22.2
2020-Jul-11 21:20 092 5 gusting 8 22.2
2020-Jul-11 21:15 225 5 gusting 8 22.8
2020-Jul-11 21:10 176 4 gusting 7 22.8
2020-Jul-11 21:05 207 4 gusting 8 23.3
2020-Jul-11 21:00 158 5 gusting 11 23.3
2020-Jul-11 20:55 186 5 gusting 11 23.3
2020-Jul-11 20:50 181 5 gusting 8 23.3
2020-Jul-11 20:40 202 5 gusting 9 23.3
2020-Jul-11 20:35 149 5 gusting 8 23.3
2020-Jul-11 20:30 146 5 gusting 11 23.3
2020-Jul-11 20:25 204 5 gusting 11 23.3
2020-Jul-11 20:20 141 5 gusting 11 23.3
2020-Jul-11 20:15 155 6 gusting 11 23.3
2020-Jul-11 20:10 180 6 gusting 10 23.9
2020-Jul-11 20:05 194 6 gusting 11 23.9
2020-Jul-11 20:00 211 6 gusting 11 23.9
2020-Jul-11 19:55 187 6 gusting 10 23.9
2020-Jul-11 19:50 190 6 gusting 10 23.3
2020-Jul-11 19:45 182 6 gusting 9 23.3
2020-Jul-11 19:40 207 6 gusting 10 23.3
2020-Jul-11 19:35 185 6 gusting 10 23.3
2020-Jul-11 19:30 197 6 gusting 10 23.9
2020-Jul-11 19:25 193 6 gusting 10 23.9
2020-Jul-11 19:20 167 6 gusting 12 23.9
2020-Jul-11 19:15 167 6 gusting 12 23.9
2020-Jul-11 19:10 185 6 gusting 12 23.9
2020-Jul-11 19:05 183 6 gusting 12 23.9
2020-Jul-11 19:00 193 6 gusting 13 23.9
2020-Jul-11 18:54 227 6 gusting 13 23.9
2020-Jul-11 18:50 199 6 gusting 13 23.9
2020-Jul-11 18:45 178 6 gusting 13 23.3
2020-Jul-11 18:40 179 6 gusting 13 23.3
2020-Jul-11 18:35 194 6 gusting 13 23.3
2020-Jul-11 18:29 191 6 gusting 13 22.8
2020-Jul-11 18:25 200 6 gusting 12 22.8
2020-Jul-11 18:20 142 6 gusting 13 22.8
2020-Jul-11 18:15 190 6 gusting 13 22.8
2020-Jul-11 18:09 132 6 gusting 13 22.8
2020-Jul-11 18:04 186 7 gusting 13 23.3
2020-Jul-11 17:59 189 6 gusting 12 23.3
2020-Jul-11 17:54 197 6 gusting 12 23.9
2020-Jul-11 17:49 189 6 gusting 10 23.9
2020-Jul-11 17:44 196 5 gusting 9 23.3
2020-Jul-11 17:39 195 5 gusting 8 23.3
2020-Jul-11 17:34 192 6 gusting 13 23.9
2020-Jul-11 17:29 225 6 gusting 13 23.9
2020-Jul-11 17:24 202 6 gusting 11 24.4
2020-Jul-11 17:19 179 6 gusting 10 24.4
2020-Jul-11 17:14 184 6 gusting 10 24.4
2020-Jul-11 17:09 198 6 gusting 10 23.9
2020-Jul-11 17:04 188 6 gusting 11 23.9
2020-Jul-11 16:59 186 6 gusting 11 23.9
2020-Jul-11 16:54 161 6 gusting 12 23.9
2020-Jul-11 16:49 194 7 gusting 13 23.9
2020-Jul-11 16:44 193 6 gusting 13 23.9
2020-Jul-11 16:39 158 6 gusting 13 23.9
2020-Jul-11 16:34 183 6 gusting 13 23.9
2020-Jul-11 16:29 185 6 gusting 11 23.3
2020-Jul-11 16:24 187 6 gusting 9 23.3
2020-Jul-11 16:19 188 6 gusting 11 23.3
2020-Jul-11 16:14 180 6 gusting 11 23.3
2020-Jul-11 16:09 193 6 gusting 11 23.3
2020-Jul-11 16:04 173 6 gusting 11 22.8
2020-Jul-11 15:59 166 6 gusting 11 22.8
2020-Jul-11 15:54 162 6 gusting 12 22.8
2020-Jul-11 15:49 195 6 gusting 12 22.8
2020-Jul-11 15:44 182 6 gusting 10 23.3
2020-Jul-11 15:39 199 6 gusting 11 23.3
2020-Jul-11 15:34 130 6 gusting 11 23.3
2020-Jul-11 15:29 187 6 gusting 10 23.3
2020-Jul-11 15:24 194 5 gusting 10 23.3
2020-Jul-11 15:19 182 6 gusting 10 23.3
2020-Jul-11 15:14 161 6 gusting 9 23.3
2020-Jul-11 15:09 181 5 gusting 9 23.3
2020-Jul-11 15:04 154 5 gusting 10 23.3
2020-Jul-11 14:59 194 5 gusting 10 23.3
2020-Jul-11 14:54 150 5 gusting 8 23.3
2020-Jul-11 14:49 179 5 gusting 8 22.8
2020-Jul-11 14:44 205 5 gusting 7 23.3
2020-Jul-11 14:39 198 5 gusting 9 23.3
2020-Jul-11 14:34 199 5 gusting 9 23.3
2020-Jul-11 14:29 195 5 gusting 8 22.8
2020-Jul-11 14:24 155 5 gusting 7 22.8
2020-Jul-11 14:19 169 4 gusting 7 22.8
2020-Jul-11 14:14 186 4 gusting 7 23.3
2020-Jul-11 14:09 169 4 gusting 7 22.8
2020-Jul-11 14:04 091 4 gusting 7 22.8
2020-Jul-11 13:59 214 4 gusting 7 22.8
2020-Jul-11 13:54 190 3 gusting 7 22.8
2020-Jul-11 13:49 224 4 gusting 8 22.8
2020-Jul-11 13:44 217 5 gusting 9 22.8
2020-Jul-11 13:39 221 5 gusting 9 22.8
2020-Jul-11 13:34 175 4 gusting 7 22.8
2020-Jul-11 13:29 188 4 gusting 7 22.8
2020-Jul-11 13:24 197 4 gusting 7 22.8
2020-Jul-11 13:19 141 4 gusting 8 22.8
2020-Jul-11 13:14 198 4 gusting 8 22.8
2020-Jul-11 13:09 188 4 gusting 8 22.2
2020-Jul-11 13:04 179 4 gusting 8 22.2
2020-Jul-11 12:59 175 4 gusting 8 22.8
2020-Jul-11 12:54 110 4 gusting 8 22.8
2020-Jul-11 12:49 107 4 gusting 9 22.8
2020-Jul-11 12:44 213 5 gusting 9 22.8
2020-Jul-11 12:39 190 5 gusting 8 22.8
2020-Jul-11 12:34 176 5 gusting 10 22.8
2020-Jul-11 12:29 168 6 gusting 10 22.8
2020-Jul-11 12:24 210 6 gusting 10 22.8
2020-Jul-11 12:19 169 5 gusting 8 22.8
2020-Jul-11 12:14 123 5 gusting 9 22.8
2020-Jul-11 12:09 244 5 gusting 9 22.8
2020-Jul-11 12:04 186 6 gusting 9 22.8
2020-Jul-11 11:59 165 5 gusting 8 22.8
2020-Jul-11 11:54 183 5 gusting 9 22.8
2020-Jul-11 11:49 202 5 gusting 9 22.8
2020-Jul-11 11:44 184 6 gusting 9 22.8
2020-Jul-11 11:39 224 6 gusting 10 22.8
2020-Jul-11 11:34 22.8
2020-Jul-11 11:29 161 6 gusting 11 22.2
2020-Jul-11 11:24 220 6 gusting 11 22.8
2020-Jul-11 11:19 226 6 gusting 9 22.8
2020-Jul-11 11:14 202 6 gusting 8 22.8
2020-Jul-11 11:09 215 6 gusting 9 22.8
2020-Jul-11 11:04 217 7 gusting 9 22.8
2020-Jul-11 10:59 213 7 gusting 9 22.2
2020-Jul-11 10:54 207 6 gusting 14 22.2
2020-Jul-11 10:49 205 7 gusting 14 22.2
2020-Jul-11 10:44 197 7 gusting 13 22.2
2020-Jul-11 10:39 193 6 gusting 11 22.2
2020-Jul-11 10:34 169 5 gusting 11 22.2
2020-Jul-11 10:29 223 6 gusting 11 22.2
2020-Jul-11 10:24 191 6 gusting 11 22.2
2020-Jul-11 10:19 188 5 gusting 9 22.2
2020-Jul-11 10:14 177 5 gusting 9 21.7
2020-Jul-11 10:09 199 5 gusting 9 21.7
2020-Jul-11 10:04 173 5 gusting 11 21.7
2020-Jul-11 09:59 066 6 gusting 11 22.2
2020-Jul-11 09:54 163 6 gusting 11 22.2
2020-Jul-11 09:49 191 6 gusting 13 22.2
2020-Jul-11 09:44 086 6 gusting 13 22.2
2020-Jul-11 09:39 213 6 gusting 12 22.2
2020-Jul-11 09:34 187 6 gusting 11 22.2
2020-Jul-11 09:29 189 6 gusting 11 22.2
2020-Jul-11 09:24 166 6 gusting 12 22.2
2020-Jul-11 09:19 197 6 gusting 12 22.2
2020-Jul-11 09:14 182 7 gusting 12 22.2
2020-Jul-11 09:09 209 6 gusting 12 22.2
2020-Jul-11 09:04 183 6 gusting 12 22.2
2020-Jul-11 08:59 241 6 gusting 12 22.2
2020-Jul-11 08:54 152 6 gusting 12 22.2
2020-Jul-11 08:49 170 6 gusting 13 22.2
2020-Jul-11 08:44 149 5 gusting 13 22.2
2020-Jul-11 08:39 088 5 gusting 11 21.7
2020-Jul-11 08:34 190 6 gusting 12 22.2
2020-Jul-11 08:29 169 6 gusting 12 22.2
2020-Jul-11 08:24 200 6 gusting 13 22.2
2020-Jul-11 08:19 161 6 gusting 13 22.2
2020-Jul-11 08:14 075 6 gusting 12 22.2
2020-Jul-11 08:08 169 6 gusting 14 22.2
2020-Jul-11 08:03 193 6 gusting 14 22.2
2020-Jul-11 07:58 157 6 gusting 12 22.2
2020-Jul-11 07:53 205 7 gusting 13 22.8
2020-Jul-11 07:48 205 7 gusting 13 22.8
2020-Jul-11 07:43 180 6 gusting 13 22.8
2020-Jul-11 07:38 089 6 gusting 17 22.8
2020-Jul-11 07:33 196 6 gusting 17 22.8
2020-Jul-11 07:28 121 6 gusting 17 22.8
2020-Jul-11 07:24 214 6 gusting 18 22.8
2020-Jul-11 07:18 215 6 gusting 18 22.8
2020-Jul-11 07:13 119 6 gusting 15 22.8
2020-Jul-11 07:03 163 7 gusting 13 22.8
2020-Jul-11 06:58 224 6 gusting 13 22.8
2020-Jul-11 06:53 078 6 gusting 12 22.8
2020-Jul-11 06:48 178 6 gusting 12 22.8
2020-Jul-11 06:43 182 7 gusting 15 22.8
2020-Jul-11 06:38 148 6 gusting 15 22.8
2020-Jul-11 06:33 160 6 gusting 14 22.8
2020-Jul-11 06:28 141 6 gusting 13 22.8
2020-Jul-11 06:23 183 6 gusting 13 22.8
2020-Jul-11 06:18 144 6 gusting 14 22.8
2020-Jul-11 06:13 219 6 gusting 14 23.3
2020-Jul-11 06:08 194 6 gusting 13 23.3
2020-Jul-11 06:03 171 6 gusting 14 23.3
2020-Jul-11 05:58 141 6 gusting 14 23.3
2020-Jul-11 05:53 185 6 gusting 14 23.3
2020-Jul-11 05:48 174 6 gusting 13 23.3
2020-Jul-11 05:43 170 6 gusting 11 23.3
2020-Jul-11 05:38 179 5 gusting 10 23.3
2020-Jul-11 05:33 197 5 gusting 10 22.8
2020-Jul-11 05:28 173 5 gusting 10 22.8
2020-Jul-11 05:23 170 5 gusting 9 22.8
2020-Jul-11 05:18 137 5 gusting 10 22.8
2020-Jul-11 05:13 138 5 gusting 10 22.8
2020-Jul-11 05:08 128 4 gusting 10 22.8
2020-Jul-11 05:03 179 4 gusting 10 22.8
2020-Jul-11 04:58 162 4 gusting 10 22.8
2020-Jul-11 04:53 163 5 gusting 11 22.8
2020-Jul-11 04:48 196 5 gusting 11 22.8
2020-Jul-11 04:43 181 5 gusting 10 22.8
2020-Jul-11 04:38 215 5 gusting 14 22.8
2020-Jul-11 04:33 145 5 gusting 14 22.8
2020-Jul-11 04:28 152 6 gusting 14 22.8
2020-Jul-11 04:23 173 5 gusting 10 22.8
2020-Jul-11 04:18 228 5 gusting 11 22.8
2020-Jul-11 04:13 186 6 gusting 12 22.8
2020-Jul-11 04:08 174 5 gusting 12 22.8
2020-Jul-11 04:03 056 5 gusting 12 22.8
2020-Jul-11 03:58 202 5 gusting 10 22.8
2020-Jul-11 03:53 197 5 gusting 10 22.8
2020-Jul-11 03:48 185 5 gusting 10 22.8
2020-Jul-11 03:43 181 5 gusting 10 22.8
2020-Jul-11 03:38 175 5 gusting 10 22.8
2020-Jul-11 03:33 147 5 gusting 11 22.8
2020-Jul-11 03:28 177 5 gusting 11 22.8
2020-Jul-11 03:23 153 5 gusting 11 22.8
2020-Jul-11 03:18 229 5 gusting 11 22.8
2020-Jul-11 03:13 227 5 gusting 12 22.8
2020-Jul-11 03:08 217 5 gusting 12 22.8
2020-Jul-11 03:03 193 5 gusting 13 22.8
2020-Jul-11 02:58 163 5 gusting 13 22.8
2020-Jul-11 02:53 122 5 gusting 11 22.8
2020-Jul-11 02:48 196 5 gusting 10 22.8
2020-Jul-11 02:43 148 4 gusting 9 22.8
2020-Jul-11 02:38 233 4 gusting 8 22.8
2020-Jul-11 02:33 238 4 gusting 10 22.8
2020-Jul-11 02:28 216 4 gusting 10 22.8
2020-Jul-11 02:23 200 4 gusting 11 22.8
2020-Jul-11 02:18 226 4 gusting 11 22.8
2020-Jul-11 02:13 175 4 gusting 9 22.8
2020-Jul-11 02:08 136 4 gusting 8 22.8
2020-Jul-11 02:03 193 4 gusting 9 22.8
2020-Jul-11 01:58 192 4 gusting 9 22.8
2020-Jul-11 01:53 181 4 gusting 8 22.8
2020-Jul-11 01:48 230 4 gusting 10 22.8
2020-Jul-11 01:43 197 5 gusting 10 23.3
2020-Jul-11 01:38 181 5 gusting 9 23.3
2020-Jul-11 01:33 187 5 gusting 12 23.3
2020-Jul-11 01:28 201 6 gusting 12 23.3
2020-Jul-11 01:23 223 6 gusting 13 23.3
2020-Jul-11 01:18 192 6 gusting 13 23.3
2020-Jul-11 01:13 198 5 gusting 13 23.3
2020-Jul-11 01:08 163 5 gusting 11 23.3
2020-Jul-11 01:03 153 5 gusting 11 23.3
2020-Jul-11 00:58 174 5 gusting 12 23.3
2020-Jul-11 00:53 192 5 gusting 12 23.3
2020-Jul-11 00:48 208 4 gusting 13 23.3
2020-Jul-11 00:43 207 5 gusting 15 23.9
2020-Jul-11 00:38 23.9
2020-Jul-11 00:33 175 5 gusting 8 23.9
2020-Jul-11 00:28 177 5 gusting 8 23.9
2020-Jul-11 00:23 044 4 gusting 12 23.9
2020-Jul-11 00:18 23.9
2020-Jul-11 00:13 165 5 gusting 11 23.9
2020-Jul-11 00:08 200 5 gusting 12 23.9
2020-Jul-11 00:03 108 4 gusting 12 23.9
2020-Jul-10 23:58 258 4 gusting 11 23.9
2020-Jul-10 23:53 322 4 gusting 11 23.9
2020-Jul-10 23:48 195 4 gusting 8 23.9
2020-Jul-10 23:43 193 4 gusting 11 23.9
2020-Jul-10 23:38 258 4 gusting 11 23.9
2020-Jul-10 23:33 152 5 gusting 8 23.9
2020-Jul-10 23:28 183 5 gusting 11 23.9
2020-Jul-10 23:23 028 4 gusting 11 23.9
2020-Jul-10 23:18 224 4 gusting 9 23.9
2020-Jul-10 23:13 299 5 gusting 13 23.9
2020-Jul-10 23:08 193 5 gusting 13 23.9
2020-Jul-10 23:03 162 4 gusting 8 23.9
2020-Jul-10 22:58 027 4 gusting 11 23.9
2020-Jul-10 22:53 045 4 gusting 11 23.9
2020-Jul-10 22:48 172 5 gusting 11 23.9
2020-Jul-10 22:43 175 5 gusting 11 23.9
2020-Jul-10 22:38 215 4 gusting 9 24.4
2020-Jul-10 22:33 193 3 gusting 9 24.4
2020-Jul-10 22:28 154 3 gusting 8 24.4
2020-Jul-10 22:22 307 3 gusting 8 24.4
2020-Jul-10 22:17 231 4 gusting 10 24.4
2020-Jul-10 22:12 179 3 gusting 10 24.4
2020-Jul-10 22:07 195 3 gusting 8 24.4
2020-Jul-10 22:02 006 3 gusting 8 24.4
2020-Jul-10 21:57 228 3 gusting 8 24.4
2020-Jul-10 21:52 146 3 gusting 8 24.4
2020-Jul-10 21:47 193 3 gusting 8 24.4
2020-Jul-10 21:42 24.4
2020-Jul-10 21:37 050 3 gusting 8 24.4
2020-Jul-10 21:32 215 3 gusting 8 24.4
2020-Jul-10 21:27 181 3 gusting 10 24.4
2020-Jul-10 21:22 192 2 gusting 10 23.9
2020-Jul-10 21:17 183 2 gusting 10 23.9
2020-Jul-10 21:12 258 3 gusting 8 23.9
2020-Jul-10 21:07 169 3 gusting 8 23.9
2020-Jul-10 21:02 100 3 gusting 8 23.9
2020-Jul-10 20:57 23.9
2020-Jul-10 20:52 261 4 gusting 11 23.9
2020-Jul-10 20:47 198 4 gusting 11 23.9
2020-Jul-10 20:42 194 4 gusting 10 23.9
2020-Jul-10 20:37 190 4 gusting 10 23.9
2020-Jul-10 20:32 126 4 gusting 11 23.9
2020-Jul-10 20:27 23.3
2020-Jul-10 20:22 254 5 gusting 11 23.3
2020-Jul-10 20:17 217 4 gusting 13 23.3
2020-Jul-10 20:12 222 4 gusting 13 23.3
2020-Jul-10 20:07 306 4 gusting 9 23.3
2020-Jul-10 20:02 197 4 gusting 9 23.9
2020-Jul-10 19:57 151 4 gusting 9 23.9
2020-Jul-10 19:52 184 4 gusting 8 23.9
2020-Jul-10 19:47 170 4 gusting 8 23.9
2020-Jul-10 19:42 199 4 gusting 8 23.9
2020-Jul-10 19:37 186 4 gusting 9 23.9
2020-Jul-10 19:32 189 3 gusting 9 23.9
2020-Jul-10 19:27 153 3 gusting 6 23.9
2020-Jul-10 19:22 168 3 gusting 6 23.9
2020-Jul-10 19:17 170 2 gusting 7 23.9
2020-Jul-10 19:12 23.9
2020-Jul-10 19:07 004 3 gusting 7 23.3
2020-Jul-10 19:02 23.3
2020-Jul-10 18:57 323 2 gusting 7 23.9
2020-Jul-10 18:52 192 2 gusting 6 23.9
2020-Jul-10 18:47 191 2 gusting 6 23.9
2020-Jul-10 18:42 089 2 gusting 5 23.9
2020-Jul-10 18:37 218 2 gusting 6 23.3
2020-Jul-10 18:32 051 2 gusting 6 23.9
2020-Jul-10 18:27 195 2 gusting 6 23.9
2020-Jul-10 18:22 206 1 gusting 6 23.9
2020-Jul-10 18:17 23.9
2020-Jul-10 18:12 229 2 gusting 6 23.9
2020-Jul-10 18:07 181 2 gusting 5 23.9
2020-Jul-10 18:02 23.9
2020-Jul-10 17:57 154 2 gusting 7 23.9
2020-Jul-10 17:52 192 3 gusting 7 23.3
2020-Jul-10 17:47 23.3
2020-Jul-10 17:42 173 3 gusting 8 23.3
2020-Jul-10 17:37 197 4 gusting 12 23.3
2020-Jul-10 17:32 229 4 gusting 12 23.9
2020-Jul-10 17:26 142 4 gusting 12 23.9
2020-Jul-10 17:22 230 4 gusting 12 23.9
2020-Jul-10 17:16 203 4 gusting 8 23.9
2020-Jul-10 17:11 165 4 gusting 11 24.4
2020-Jul-10 17:07 207 4 gusting 11 24.4
2020-Jul-10 17:01 191 3 gusting 7 24.4
2020-Jul-10 16:57 355 2 gusting 6 24.4
2020-Jul-10 16:52 183 3 gusting 10 24.4
2020-Jul-10 16:47 175 4 gusting 10 24.4
2020-Jul-10 16:42 201 3 gusting 7 24.4
2020-Jul-10 16:37 179 3 gusting 10 24.4
2020-Jul-10 16:32 180 4 gusting 10 24.4
2020-Jul-10 16:27 201 5 gusting 10 24.4
2020-Jul-10 16:22 204 3 gusting 10 25.0
2020-Jul-10 16:17 202 4 gusting 8 24.4
2020-Jul-10 16:12 183 4 gusting 9 24.4
2020-Jul-10 16:06 186 3 gusting 9 24.4
2020-Jul-10 16:01 176 3 gusting 9 24.4
2020-Jul-10 15:56 050 3 gusting 10 23.9
2020-Jul-10 15:51 043 3 gusting 10 23.9
2020-Jul-10 15:46 337 4 gusting 8 23.3
2020-Jul-10 15:41 146 4 gusting 8 23.9
2020-Jul-10 15:36 174 3 gusting 8 23.9
2020-Jul-10 15:31 195 4 gusting 7 23.9
2020-Jul-10 15:26 168 4 gusting 8 24.4
2020-Jul-10 15:21 189 4 gusting 8 24.4
2020-Jul-10 15:16 007 4 gusting 13 25.0
2020-Jul-10 15:11 203 3 gusting 13 25.0
2020-Jul-10 15:06 164 3 gusting 7 25.0
2020-Jul-10 15:01 211 4 gusting 10 25.0
2020-Jul-10 14:56 212 3 gusting 10 25.0
2020-Jul-10 14:51 206 3 gusting 10 25.0
2020-Jul-10 14:46 122 4 gusting 10 25.0
2020-Jul-10 14:41 214 4 gusting 8 25.0
2020-Jul-10 14:36 207 3 gusting 10 25.0
2020-Jul-10 14:31 211 3 gusting 10 25.6
2020-Jul-10 14:26 214 2 gusting 7 25.6
2020-Jul-10 14:21 25.6
2020-Jul-10 14:16 186 1 gusting 6 25.6
2020-Jul-10 14:11 177 1 gusting 5 25.6
2020-Jul-10 14:06 25.0
2020-Jul-10 14:01 25.0
2020-Jul-10 13:56 117 1 gusting 7 25.0
2020-Jul-10 13:51 213 1 gusting 7 25.0
2020-Jul-10 13:46 240 1 gusting 4 25.0
2020-Jul-10 13:41 049 1 gusting 6 25.0
2020-Jul-10 13:36 24.4
2020-Jul-10 13:31 004 1 gusting 4 24.4
2020-Jul-10 13:26 24.4
2020-Jul-10 13:21 008 1 gusting 4 24.4
2020-Jul-10 13:16 011 1 gusting 6 24.4
2020-Jul-10 13:11 037 1 gusting 6 24.4
2020-Jul-10 13:06 048 1 gusting 6 23.9
2020-Jul-10 13:01 110 1 gusting 6 23.9
2020-Jul-10 12:56 351 1 gusting 6 23.9
2020-Jul-10 12:51 138 1 gusting 6 23.9
2020-Jul-10 12:46 355 2 gusting 6 23.9
2020-Jul-10 12:41 003 2 gusting 6 23.3
2020-Jul-10 12:36 353 1 gusting 5 23.3
2020-Jul-10 12:31 23.3
2020-Jul-10 12:26 23.3
2020-Jul-10 12:21 201 0 gusting 4 23.3
2020-Jul-10 12:16 010 1 gusting 4 23.3
2020-Jul-10 12:11 229 1 gusting 4 23.3
2020-Jul-10 12:06 23.3
2020-Jul-10 12:01 22.8